Location: Bay Harbour
(38.2612°N, 75.2555°W)
Time: 23:13:55
(UTC+00:00)

NOSS 3-3 (A) - Pass Details

Date: 29 October 2020
Orbit: 819 x 1393 km, 63.4° (Epoch: 29 November)

Event Time Altitude Azimuth Distance (km) Brightness Sun altitude
Rises 23:23:35 0° 220° (SW) 3,362 7.5 -16.1°
Reaches altitude 10° 23:25:57 10° 222° (SW) 2,462 6.8 -16.5°
Maximum altitude 23:31:34 67° 305° (NW) 973 4.1 -17.6°
Drops below altitude 10° 23:37:55 10° 29° (NNE) 2,762 6.1 -18.9°
Enters shadow 23:38:31 - 30° (NNE) 2,987 6.2 -19.0°
